Time,TemperatureF,DewpointF,PressureIn,WindDirection,WindDirectionDegrees,WindSpeedMPH,WindSpeedGustMPH,Humidity,HourlyPrecipIn,Conditions,Clouds,dailyrainin,SolarRadiationWatts/m^2,SoftwareType,DateUTC
2013-01-03 00:03:00,37.2,23.1,30.16,SSW,199,2.5,2.5,56,0.00,,---,0.00,0.00,VWS V14.01,2013-01-03 08:03:00,
2013-01-03 00:08:00,37.2,23.2,30.16,SSW,205,1.1,1.1,57,0.00,,---,0.00,0.00,VWS V14.01,2013-01-03 08:08:00,
2013-01-03 00:13:00,37.4,23.7,30.16,WNW,289,1.6,1.6,57,0.00,,---,0.00,0.00,VWS V14.01,2013-01-03 08:13:00,
2013-01-03 00:18:00,37.4,23.9,30.15,WNW,293,2.7,2.7,58,0.00,,---,0.00,0.00,VWS V14.01,2013-01-03 08:18:00,
2013-01-03 00:23:00,37.2,23.5,30.15,WNW,289,1.1,1.1,57,0.00,,---,0.00,2.14,VWS V14.01,2013-01-03 08:23:00,
2013-01-03 00:28:00,37.6,19.9,30.15,North,355,2.2,2.5,48,0.00,,---,0.00,4.27,VWS V14.01,2013-01-03 08:28:00,
2013-01-03 00:33:00,38.3,20.9,30.15,NW,306,4.0,4.0,49,0.00,,---,0.00,0.00,VWS V14.01,2013-01-03 08:33:00,
2013-01-03 00:38:00,38.3,18.9,30.15,NW,324,2.0,2.0,45,0.00,,---,0.00,0.00,VWS V14.01,2013-01-03 08:38:00,
2013-01-03 00:43:00,38.1,18.9,30.15,NNW,327,2.0,2.0,46,0.00,,---,0.00,0.00,VWS V14.01,2013-01-03 08:43:00,
2013-01-03 00:48:00,38.1,19.2,30.15,NW,315,3.6,3.6,46,0.00,,---,0.00,1.68,VWS V14.01,2013-01-03 08:48:00,
2013-01-03 00:53:00,37.6,19.6,30.15,NNW,343,3.8,4.5,48,0.00,,---,0.00,0.00,VWS V14.01,2013-01-03 08:53:00,
2013-01-03 00:58:00,37.4,20.3,30.15,NW,305,4.0,6.5,50,0.00,,---,0.00,0.31,VWS V14.01,2013-01-03 08:58:00,
2013-01-03 01:03:00,37.4,20.4,30.15,NW,310,5.8,6.5,50,0.00,,---,0.00,0.00,VWS V14.01,2013-01-03 09:03:00,
2013-01-03 01:08:00,37.6,20.5,30.15,WNW,282,3.1,3.1,50,0.00,,---,0.00,0.00,VWS V14.01,2013-01-03 09:08:00,
2013-01-03 01:13:00,37.4,20.5,30.15,WNW,302,4.0,4.0,50,0.00,,---,0.00,2.29,VWS V14.01,2013-01-03 09:13:00,
2013-01-03 01:18:00,37.2,20.8,30.15,NW,321,3.1,3.8,51,0.00,,---,0.00,0.00,VWS V14.01,2013-01-03 09:18:00,
2013-01-03 01:23:00,37.2,21.0,30.15,NW,314,3.6,3.6,52,0.00,,---,0.00,0.08,VWS V14.01,2013-01-03 09:23:00,
2013-01-03 01:28:00,37.0,20.6,30.15,East,86,1.3,2.0,51,0.00,,---,0.00,0.00,VWS V14.01,2013-01-03 09:28:00,
2013-01-03 01:33:00,36.9,20.7,30.16,North,7,2.5,2.5,52,0.00,,---,0.00,0.00,VWS V14.01,2013-01-03 09:33:00,
2013-01-03 01:38:00,36.5,20.5,30.16,SE,132,1.6,1.6,52,0.00,,---,0.00,0.76,VWS V14.01,2013-01-03 09:38:00,
2013-01-03 01:43:00,36.7,19.8,30.16,East,84,1.1,1.1,50,0.00,,---,0.00,1.45,VWS V14.01,2013-01-03 09:43:00,
2013-01-03 01:48:00,36.7,18.6,30.16,NE,46,3.1,3.1,48,0.00,,---,0.00,0.00,VWS V14.01,2013-01-03 09:48:00,
2013-01-03 01:53:00,36.7,18.7,30.16,NE,50,1.3,2.7,48,0.00,,---,0.00,0.00,VWS V14.01,2013-01-03 09:53:00,
2013-01-03 01:58:00,36.7,18.9,30.16,NNE,21,2.9,2.9,48,0.00,,---,0.00,0.46,VWS V14.01,2013-01-03 09:58:00,
2013-01-03 02:03:00,35.8,18.3,30.16,ENE,74,3.1,4.3,49,0.00,,---,0.00,1.37,VWS V14.01,2013-01-03 10:03:00,
2013-01-03 02:08:00,36.3,17.5,30.16,ENE,78,5.1,5.1,46,0.00,,---,0.00,0.61,VWS V14.01,2013-01-03 10:08:00,
2013-01-03 02:13:00,36.3,16.9,30.16,ENE,62,3.1,3.1,45,0.00,,---,0.00,0.00,VWS V14.01,2013-01-03 10:13:00,
2013-01-03 02:18:00,36.5,16.7,30.16,NE,56,3.6,3.6,44,0.00,,---,0.00,0.00,VWS V14.01,2013-01-03 10:18:00,
2013-01-03 02:23:00,36.3,16.8,30.16,NNE,20,1.8,1.8,44,0.00,,---,0.00,0.76,VWS V14.01,2013-01-03 10:23:00,
2013-01-03 02:28:00,36.0,17.0,30.16,North,349,2.7,2.7,46,0.00,,---,0.00,0.00,VWS V14.01,2013-01-03 10:28:00,
2013-01-03 02:33:00,35.8,18.6,30.16,WNW,294,4.3,4.3,49,0.00,,---,0.00,1.22,VWS V14.01,2013-01-03 10:33:00,
2013-01-03 02:38:00,36.0,19.0,30.16,NW,314,4.3,4.9,50,0.00,,---,0.00,0.00,VWS V14.01,2013-01-03 10:38:00,
2013-01-03 02:43:00,36.0,20.3,30.16,NNW,332,5.8,5.8,53,0.00,,---,0.00,0.15,VWS V14.01,2013-01-03 10:43:00,
2013-01-03 02:48:00,36.1,20.4,30.16,NW,311,4.3,4.3,52,0.00,,---,0.00,1.14,VWS V14.01,2013-01-03 10:48:00,
2013-01-03 02:53:00,36.1,20.3,30.16,NW,309,2.5,2.5,52,0.00,,---,0.00,0.00,VWS V14.01,2013-01-03 10:53:00,
2013-01-03 02:58:00,36.1,20.0,30.16,North,11,0.4,2.7,52,0.00,,---,0.00,0.00,VWS V14.01,2013-01-03 10:58:00,
2013-01-03 03:03:00,36.1,20.0,30.16,East,99,1.6,2.5,52,0.00,,---,0.00,0.00,VWS V14.01,2013-01-03 11:03:00,
2013-01-03 03:08:00,36.1,19.8,30.16,ENE,64,4.3,4.3,51,0.00,,---,0.00,0.00,VWS V14.01,2013-01-03 11:08:00,
2013-01-03 03:13:00,36.1,19.3,30.16,East,81,4.7,5.1,50,0.00,,---,0.00,1.45,VWS V14.01,2013-01-03 11:13:00,
2013-01-03 03:18:00,36.0,18.1,30.16,East,87,2.2,2.2,48,0.00,,---,0.00,5.80,VWS V14.01,2013-01-03 11:18:00,
2013-01-03 03:23:00,36.1,18.0,30.15,East,85,1.8,5.1,47,0.00,,---,0.00,0.00,VWS V14.01,2013-01-03 11:23:00,
2013-01-03 03:28:00,36.0,17.5,30.15,East,96,3.6,3.6,47,0.00,,---,0.00,0.00,VWS V14.01,2013-01-03 11:28:00,
2013-01-03 03:33:00,36.0,17.4,30.15,ENE,75,3.1,3.1,46,0.00,,---,0.00,0.00,VWS V14.01,2013-01-03 11:33:00,
2013-01-03 03:38:00,35.8,17.6,30.15,NE,49,2.5,2.5,47,0.00,,---,0.00,0.23,VWS V14.01,2013-01-03 11:38:00,
2013-01-03 03:43:00,35.6,18.0,30.15,North,353,0.9,0.9,48,0.00,,---,0.00,0.00,VWS V14.01,2013-01-03 11:43:00,
2013-01-03 03:48:00,35.6,19.5,30.15,WNW,298,2.5,2.5,51,0.00,,---,0.00,0.00,VWS V14.01,2013-01-03 11:48:00,
2013-01-03 03:53:00,35.2,20.5,30.15,WNW,298,0.4,1.6,54,0.00,,---,0.00,0.00,VWS V14.01,2013-01-03 11:53:00,
2013-01-03 03:58:00,34.9,19.9,30.14,West,272,0.9,0.9,54,0.00,,---,0.00,0.00,VWS V14.01,2013-01-03 11:58:00,
2013-01-03 04:03:00,34.9,19.6,30.14,West,266,1.1,1.1,53,0.00,,---,0.00,0.00,VWS V14.01,2013-01-03 12:03:00,
2013-01-03 04:08:00,34.7,18.8,30.14,North,352,0.4,0.4,52,0.00,,---,0.00,0.00,VWS V14.01,2013-01-03 12:08:00,
2013-01-03 04:13:00,34.9,20.2,30.14,WNW,291,1.8,1.8,55,0.00,,---,0.00,0.00,VWS V14.01,2013-01-03 12:13:00,
2013-01-03 04:18:00,34.9,21.3,30.14,WNW,299,2.5,2.5,57,0.00,,---,0.00,0.00,VWS V14.01,2013-01-03 12:18:00,
2013-01-03 04:23:00,34.7,21.7,30.13,WSW,240,0.9,1.1,59,0.00,,---,0.00,0.00,VWS V14.01,2013-01-03 12:23:00,
2013-01-03 04:28:00,34.7,19.9,30.13,SSW,192,1.3,2.0,54,0.00,,---,0.00,0.00,VWS V14.01,2013-01-03 12:28:00,
2013-01-03 04:33:00,34.9,19.6,30.13,East,100,1.1,1.1,53,0.00,,---,0.00,1.60,VWS V14.01,2013-01-03 12:33:00,
2013-01-03 04:38:00,34.9,19.7,30.13,SSE,159,1.3,1.3,54,0.00,,---,0.00,0.00,VWS V14.01,2013-01-03 12:38:00,
2013-01-03 04:43:00,34.9,20.3,30.13,ESE,123,2.2,2.2,55,0.00,,---,0.00,5.65,VWS V14.01,2013-01-03 12:43:00,
2013-01-03 04:48:00,35.1,20.7,30.12,SSE,151,1.8,2.0,55,0.00,,---,0.00,0.00,VWS V14.01,2013-01-03 12:48:00,
2013-01-03 04:53:00,35.1,19.6,30.12,ESE,121,1.3,1.3,53,0.00,,---,0.00,0.00,VWS V14.01,2013-01-03 12:53:00,
2013-01-03 04:58:00,35.1,19.4,30.12,ESE,108,1.6,1.8,52,0.00,,---,0.00,0.00,VWS V14.01,2013-01-03 12:58:00,
2013-01-03 05:03:00,35.1,19.8,30.12,SE,144,1.8,2.0,53,0.00,,---,0.00,0.00,VWS V14.01,2013-01-03 13:03:00,
2013-01-03 05:08:00,35.1,19.2,30.12,SSE,160,2.5,2.7,52,0.00,,---,0.00,0.00,VWS V14.01,2013-01-03 13:08:00,
2013-01-03 05:13:00,35.2,18.9,30.12,SE,137,3.8,4.0,51,0.00,,---,0.00,0.00,VWS V14.01,2013-01-03 13:13:00,
2013-01-03 05:18:00,35.2,18.9,30.12,ESE,105,2.7,4.0,51,0.00,,---,0.00,0.00,VWS V14.01,2013-01-03 13:18:00,
2013-01-03 05:23:00,35.2,19.2,30.12,SSE,168,1.6,1.6,52,0.00,,---,0.00,0.00,VWS V14.01,2013-01-03 13:23:00,
2013-01-03 05:28:00,35.2,19.5,30.12,ENE,59,0.9,1.1,52,0.00,,---,0.00,0.00,VWS V14.01,2013-01-03 13:28:00,
2013-01-03 05:33:00,34.5,19.7,30.11,SSW,212,0.4,0.4,54,0.00,,---,0.00,0.00,VWS V14.01,2013-01-03 13:33:00,
2013-01-03 05:38:00,34.3,19.0,30.11,SSE,167,1.1,1.1,53,0.00,,---,0.00,1.76,VWS V14.01,2013-01-03 13:38:00,
2013-01-03 05:43:00,34.7,18.4,30.11,SSW,192,0.7,0.9,51,0.00,,---,0.00,2.21,VWS V14.01,2013-01-03 13:43:00,
2013-01-03 05:48:00,34.2,20.0,30.11,North,3,0.9,0.9,56,0.00,,---,0.00,0.00,VWS V14.01,2013-01-03 13:48:00,
2013-01-03 05:53:00,33.8,21.0,30.11,NW,310,1.3,1.3,59,0.00,,---,0.00,0.46,VWS V14.01,2013-01-03 13:53:00,
2013-01-03 05:58:00,33.8,20.7,30.11,NW,311,1.6,1.6,58,0.00,,---,0.00,0.00,VWS V14.01,2013-01-03 13:58:00,
2013-01-03 06:03:00,33.8,20.5,30.10,WSW,244,0.4,0.4,58,0.00,,---,0.00,0.00,VWS V14.01,2013-01-03 14:03:00,
2013-01-03 06:08:00,34.0,20.3,30.10,SSE,168,0.7,0.7,57,0.00,,---,0.00,0.15,VWS V14.01,2013-01-03 14:08:00,
2013-01-03 06:13:00,34.2,20.9,30.10,South,188,2.5,2.5,58,0.00,,---,0.00,1.76,VWS V14.01,2013-01-03 14:13:00,
2013-01-03 06:18:00,34.3,21.2,30.10,SE,138,0.9,0.9,58,0.00,,---,0.00,1.68,VWS V14.01,2013-01-03 14:18:00,
2013-01-03 06:23:00,34.2,21.4,30.10,South,177,0.7,0.7,59,0.00,,---,0.00,0.00,VWS V14.01,2013-01-03 14:23:00,
2013-01-03 06:28:00,34.3,21.7,30.10,South,175,2.0,2.0,59,0.00,,---,0.00,5.04,VWS V14.01,2013-01-03 14:28:00,
2013-01-03 06:33:00,34.5,22.5,30.09,SSE,148,1.1,1.1,61,0.00,,---,0.00,1.22,VWS V14.01,2013-01-03 14:33:00,
2013-01-03 06:38:00,34.3,22.6,30.09,NW,315,1.3,1.3,62,0.00,,---,0.00,5.04,VWS V14.01,2013-01-03 14:38:00,
2013-01-03 06:43:00,34.3,23.0,30.09,SE,144,1.1,2.0,63,0.00,,---,0.00,0.00,VWS V14.01,2013-01-03 14:43:00,
2013-01-03 06:48:00,34.2,23.6,30.10,ESE,117,2.0,2.0,65,0.00,,---,0.00,0.00,VWS V14.01,2013-01-03 14:48:00,
2013-01-03 06:53:00,34.3,23.8,30.10,East,86,4.0,4.0,65,0.00,,---,0.00,0.00,VWS V14.01,2013-01-03 14:53:00,
2013-01-03 06:57:00,34.3,24.9,30.10,ENE,76,2.0,2.0,68,0.00,,---,0.00,3.97,VWS V14.01,2013-01-03 14:57:00,
2013-01-03 07:02:00,34.2,25.5,30.10,East,99,2.5,2.7,70,0.00,,---,0.00,0.00,VWS V14.01,2013-01-03 15:02:00,
2013-01-03 07:07:00,34.2,25.1,30.10,ENE,76,1.6,1.6,69,0.00,,---,0.00,0.76,VWS V14.01,2013-01-03 15:07:00,
2013-01-03 07:12:00,34.2,22.9,30.10,ENE,70,1.8,1.8,63,0.00,,---,0.00,0.00,VWS V14.01,2013-01-03 15:12:00,
2013-01-03 07:17:00,34.3,19.9,30.10,NE,48,4.0,4.0,55,0.00,,---,0.00,1.83,VWS V14.01,2013-01-03 15:17:00,
2013-01-03 07:22:00,34.3,19.6,30.10,NNE,28,3.6,3.6,54,0.00,,---,0.00,0.00,VWS V14.01,2013-01-03 15:22:00,
2013-01-03 07:27:00,34.5,18.6,30.09,NNE,22,3.1,3.1,52,0.00,,---,0.00,0.00,VWS V14.01,2013-01-03 15:27:00,
2013-01-03 07:32:00,34.7,19.7,30.09,NNW,328,2.9,3.1,54,0.00,,---,0.00,1.45,VWS V14.01,2013-01-03 15:32:00,
2013-01-03 07:37:00,34.5,19.6,30.09,NNW,338,3.1,4.3,54,0.00,,---,0.00,0.00,VWS V14.01,2013-01-03 15:37:00,
2013-01-03 07:42:00,34.3,19.3,30.09,NE,37,0.9,2.0,54,0.00,,---,0.00,0.31,VWS V14.01,2013-01-03 15:42:00,
2013-01-03 07:47:00,34.3,19.6,30.09,NW,326,1.3,1.3,54,0.00,,---,0.00,0.00,VWS V14.01,2013-01-03 15:47:00,
2013-01-03 07:52:00,34.3,19.0,30.09,NW,318,2.5,3.6,53,0.00,,---,0.00,0.00,VWS V14.01,2013-01-03 15:52:00,
2013-01-03 07:57:00,34.7,18.2,30.09,NW,316,6.7,6.7,50,0.00,,---,0.00,7.63,VWS V14.01,2013-01-03 15:57:00,
2013-01-03 08:02:00,35.1,18.1,30.09,NW,324,4.3,4.3,50,0.00,,---,0.00,7.40,VWS V14.01,2013-01-03 16:02:00,
2013-01-03 08:07:00,34.9,17.9,30.09,NW,326,4.9,6.0,50,0.00,,---,0.00,8.09,VWS V14.01,2013-01-03 16:07:00,
2013-01-03 08:12:00,35.1,17.5,30.09,NW,314,7.6,8.1,48,0.00,,---,0.00,12.29,VWS V14.01,2013-01-03 16:12:00,
2013-01-03 08:17:00,35.4,17.8,30.09,NE,36,4.3,4.3,48,0.00,,---,0.00,11.07,VWS V14.01,2013-01-03 16:17:00,
2013-01-03 08:22:00,35.6,17.9,30.09,NNW,335,5.6,5.6,48,0.00,,---,0.00,13.20,VWS V14.01,2013-01-03 16:22:00,
2013-01-03 08:27:00,36.0,18.1,30.09,NNW,338,3.1,4.0,48,0.00,,---,0.00,16.79,VWS V14.01,2013-01-03 16:27:00,
2013-01-03 08:32:00,36.1,18.2,30.09,North,5,0.9,2.7,48,0.00,,---,0.00,17.40,VWS V14.01,2013-01-03 16:32:00,
2013-01-03 08:37:00,36.5,17.9,30.09,ENE,68,4.3,4.3,46,0.00,,---,0.00,19.84,VWS V14.01,2013-01-03 16:37:00,
2013-01-03 08:42:00,36.3,18.2,30.10,NE,54,2.7,2.7,47,0.00,,---,0.00,23.05,VWS V14.01,2013-01-03 16:42:00,
2013-01-03 08:47:00,36.0,18.1,30.10,ENE,62,6.9,6.9,48,0.00,,---,0.00,28.08,VWS V14.01,2013-01-03 16:47:00,
2013-01-03 08:52:00,36.0,18.9,30.10,ENE,76,3.8,3.8,49,0.00,,---,0.00,35.41,VWS V14.01,2013-01-03 16:52:00,
2013-01-03 08:57:00,36.0,18.8,30.10,East,87,4.9,7.2,49,0.00,,---,0.00,28.08,VWS V14.01,2013-01-03 16:57:00,
2013-01-03 09:02:00,35.8,18.5,30.11,East,95,5.1,5.8,49,0.00,,---,0.00,38.61,VWS V14.01,2013-01-03 17:02:00,
2013-01-03 09:07:00,36.5,18.5,30.10,NNE,18,4.0,6.0,48,0.00,,---,0.00,37.62,VWS V14.01,2013-01-03 17:07:00,
2013-01-03 09:12:00,36.5,18.4,30.10,NNE,18,3.6,3.6,47,0.00,,---,0.00,39.68,VWS V14.01,2013-01-03 17:12:00,
2013-01-03 09:17:00,37.4,19.3,30.10,NNE,17,2.5,2.5,48,0.00,,---,0.00,42.35,VWS V14.01,2013-01-03 17:17:00,
2013-01-03 09:22:00,38.1,19.7,30.10,NNE,19,2.5,2.5,47,0.00,,---,0.00,47.70,VWS V14.01,2013-01-03 17:22:00,
2013-01-03 09:27:00,37.8,18.6,30.11,ENE,67,4.5,4.5,46,0.00,,---,0.00,50.67,VWS V14.01,2013-01-03 17:27:00,
2013-01-03 09:32:00,37.4,18.2,30.11,ENE,58,2.2,5.1,45,0.00,,---,0.00,59.37,VWS V14.01,2013-01-03 17:32:00,
2013-01-03 09:37:00,38.1,19.0,30.11,NE,47,2.7,2.9,46,0.00,,---,0.00,63.64,VWS V14.01,2013-01-03 17:37:00,
2013-01-03 09:42:00,38.3,18.6,30.11,NE,38,1.8,2.0,45,0.00,,---,0.00,58.53,VWS V14.01,2013-01-03 17:42:00,
2013-01-03 09:47:00,38.8,19.2,30.10,North,0,1.6,2.2,45,0.00,,---,0.00,63.34,VWS V14.01,2013-01-03 17:47:00,
2013-01-03 09:52:00,39.6,21.5,30.11,North,359,0.7,1.3,48,0.00,,---,0.00,74.56,VWS V14.01,2013-01-03 17:52:00,
2013-01-03 09:57:00,39.4,20.1,30.11,ENE,72,3.6,3.6,46,0.00,,---,0.00,81.58,VWS V14.01,2013-01-03 17:57:00,
2013-01-03 10:02:00,38.5,18.4,30.11,East,95,6.7,6.7,44,0.00,,---,0.00,77.38,VWS V14.01,2013-01-03 18:02:00,
2013-01-03 10:07:00,37.8,17.4,30.11,East,80,7.6,7.6,43,0.00,,---,0.00,83.33,VWS V14.01,2013-01-03 18:07:00,
2013-01-03 10:12:00,38.3,18.4,30.11,ESE,102,2.7,5.6,44,0.00,,---,0.00,88.75,VWS V14.01,2013-01-03 18:12:00,
2013-01-03 10:17:00,38.8,17.9,30.11,ENE,72,4.5,4.5,42,0.00,,---,0.00,87.30,VWS V14.01,2013-01-03 18:17:00,
2013-01-03 10:22:00,39.6,18.3,30.11,East,87,6.3,6.3,42,0.00,,---,0.00,90.13,VWS V14.01,2013-01-03 18:22:00,
2013-01-03 10:27:00,39.4,18.1,30.11,North,11,2.7,2.7,42,0.00,,---,0.00,99.05,VWS V14.01,2013-01-03 18:27:00,
2013-01-03 10:32:00,40.1,17.9,30.11,NE,44,2.9,5.4,40,0.00,,---,0.00,97.30,VWS V14.01,2013-01-03 18:32:00,
2013-01-03 10:37:00,40.3,17.7,30.11,NNW,341,2.5,3.6,40,0.00,,---,0.00,108.59,VWS V14.01,2013-01-03 18:37:00,
2013-01-03 10:42:00,40.3,17.8,30.11,ENE,76,2.9,2.9,40,0.00,,---,0.00,105.92,VWS V14.01,2013-01-03 18:42:00,
2013-01-03 10:47:00,40.5,17.8,30.11,NE,51,3.8,4.3,40,0.00,,---,0.00,103.25,VWS V14.01,2013-01-03 18:47:00,
2013-01-03 10:52:00,39.6,17.9,30.11,East,99,6.0,8.3,41,0.00,,---,0.00,118.36,VWS V14.01,2013-01-03 18:52:00,
2013-01-03 10:57:00,39.9,18.8,30.11,ESE,123,5.4,5.4,42,0.00,,---,0.00,126.68,VWS V14.01,2013-01-03 18:57:00,
2013-01-03 11:02:00,40.3,19.3,30.11,ENE,64,3.4,3.4,42,0.00,,---,0.00,126.53,VWS V14.01,2013-01-03 19:02:00,
2013-01-03 11:07:00,40.5,19.1,30.11,East,83,4.0,4.0,42,0.00,,---,0.00,123.93,VWS V14.01,2013-01-03 19:07:00,
2013-01-03 11:12:00,41.4,19.0,30.11,East,84,2.5,2.5,40,0.00,,---,0.00,127.37,VWS V14.01,2013-01-03 19:12:00,
2013-01-03 11:17:00,42.1,18.6,30.11,North,357,4.0,5.4,38,0.00,,---,0.00,128.21,VWS V14.01,2013-01-03 19:17:00,
2013-01-03 11:55:00,42.8,18.8,30.09,East,97,5.6,7.4,38,0.00,,---,0.00,142.93,VWS V14.01,2013-01-03 19:55:00,
2013-01-03 12:00:00,42.6,19.0,30.09,ENE,78,8.3,8.3,38,0.00,,---,0.00,151.25,VWS V14.01,2013-01-03 20:00:00,
2013-01-03 12:05:00,42.6,21.8,30.10,East,89,7.2,7.2,43,0.00,,---,0.00,150.26,VWS V14.01,2013-01-03 20:05:00,
2013-01-03 12:10:00,42.3,22.8,30.09,ENE,69,7.6,7.6,46,0.00,,---,0.00,149.19,VWS V14.01,2013-01-03 20:10:00,
2013-01-03 12:15:00,42.3,26.0,30.10,East,100,9.4,9.4,52,0.00,,---,0.00,148.28,VWS V14.01,2013-01-03 20:15:00,
2013-01-03 12:20:00,41.7,25.4,30.09,ESE,119,8.5,8.5,52,0.00,,---,0.00,146.37,VWS V14.01,2013-01-03 20:20:00,
2013-01-03 12:25:00,41.4,26.0,30.09,East,81,7.4,7.4,54,0.00,,---,0.00,147.44,VWS V14.01,2013-01-03 20:25:00,
2013-01-03 12:30:00,41.7,25.9,30.09,East,99,6.3,6.3,53,0.00,,---,0.00,141.03,VWS V14.01,2013-01-03 20:30:00,
2013-01-03 12:35:00,41.5,25.3,30.09,East,95,9.4,9.4,52,0.00,,---,0.00,136.29,VWS V14.01,2013-01-03 20:35:00,
2013-01-03 12:40:00,41.5,26.3,30.08,SE,127,4.0,4.9,54,0.00,,---,0.00,138.58,VWS V14.01,2013-01-03 20:40:00,
2013-01-03 12:45:00,41.2,26.9,30.08,SSE,151,2.5,2.5,56,0.00,,---,0.00,148.28,VWS V14.01,2013-01-03 20:45:00,
2013-01-03 12:50:00,41.7,27.7,30.08,East,92,6.5,6.5,57,0.00,,---,0.00,141.03,VWS V14.01,2013-01-03 20:50:00,
2013-01-03 12:55:00,41.4,27.4,30.08,ESE,112,7.4,7.4,57,0.00,,---,0.00,146.83,VWS V14.01,2013-01-03 20:55:00,
2013-01-03 13:00:00,41.4,27.3,30.08,ESE,122,3.8,6.5,57,0.00,,---,0.00,147.13,VWS V14.01,2013-01-03 21:00:00,
2013-01-03 13:05:00,41.5,27.2,30.08,East,89,5.4,6.0,56,0.00,,---,0.00,146.60,VWS V14.01,2013-01-03 21:05:00,
2013-01-03 13:10:00,41.7,27.2,30.08,East,98,6.7,8.3,56,0.00,,---,0.00,136.45,VWS V14.01,2013-01-03 21:10:00,
2013-01-03 13:15:00,42.1,27.1,30.08,East,85,4.5,4.5,55,0.00,,---,0.00,138.97,VWS V14.01,2013-01-03 21:15:00,
2013-01-03 13:20:00,42.1,26.9,30.08,ESE,103,5.1,6.0,54,0.00,,---,0.00,135.76,VWS V14.01,2013-01-03 21:20:00,
2013-01-03 13:25:00,42.1,26.9,30.08,ENE,69,5.4,5.4,55,0.00,,---,0.00,137.59,VWS V14.01,2013-01-03 21:25:00,
2013-01-03 13:30:00,42.4,26.4,30.07,East,93,5.1,5.1,53,0.00,,---,0.00,122.25,VWS V14.01,2013-01-03 21:30:00,
2013-01-03 13:35:00,43.2,27.1,30.07,ESE,112,4.0,4.0,53,0.00,,---,0.00,128.21,VWS V14.01,2013-01-03 21:35:00,
2013-01-03 13:40:00,43.3,27.2,30.07,ESE,119,4.3,4.3,53,0.00,,---,0.00,124.77,VWS V14.01,2013-01-03 21:40:00,
2013-01-03 13:45:00,43.7,26.5,30.07,NNE,20,1.6,2.2,50,0.00,,---,0.00,123.93,VWS V14.01,2013-01-03 21:45:00,
2013-01-03 13:50:00,43.7,25.9,30.07,ENE,66,3.8,3.8,49,0.00,,---,0.00,117.60,VWS V14.01,2013-01-03 21:50:00,
2013-01-03 13:55:00,44.2,24.9,30.07,NE,53,8.5,8.5,46,0.00,,---,0.00,119.51,VWS V14.01,2013-01-03 21:55:00,
2013-01-03 14:00:00,44.6,25.9,30.07,ENE,74,2.9,4.9,48,0.00,,---,0.00,96.92,VWS V14.01,2013-01-03 22:00:00,
2013-01-03 14:05:00,44.6,25.5,30.07,East,80,4.0,4.7,47,0.00,,---,0.00,115.38,VWS V14.01,2013-01-03 22:05:00,
2013-01-03 14:10:00,44.6,25.2,30.07,East,86,4.5,4.7,46,0.00,,---,0.00,111.34,VWS V14.01,2013-01-03 22:10:00,
2013-01-03 14:15:00,44.4,24.1,30.07,East,99,7.8,7.8,44,0.00,,---,0.00,98.75,VWS V14.01,2013-01-03 22:15:00,
2013-01-03 14:20:00,44.2,26.8,30.08,ESE,106,5.1,5.4,50,0.00,,---,0.00,93.41,VWS V14.01,2013-01-03 22:20:00,
2013-01-03 14:25:00,44.1,27.3,30.08,SE,125,5.4,5.4,52,0.00,,---,0.00,35.87,VWS V14.01,2013-01-03 22:25:00,
2013-01-03 14:30:00,43.9,27.4,30.07,East,86,2.7,2.7,52,0.00,,---,0.00,90.81,VWS V14.01,2013-01-03 22:30:00,
2013-01-03 14:35:00,45.3,23.1,30.07,NNE,20,2.5,2.5,41,0.00,,---,0.00,100.73,VWS V14.01,2013-01-03 22:35:00,
2013-01-03 14:40:00,46.0,21.6,30.08,ENE,77,5.1,5.8,38,0.00,,---,0.00,113.40,VWS V14.01,2013-01-03 22:40:00,
2013-01-03 14:45:00,45.9,21.0,30.08,NE,56,5.4,5.4,37,0.00,,---,0.00,64.33,VWS V14.01,2013-01-03 22:45:00,
2013-01-03 14:50:00,45.5,21.4,30.08,ENE,65,11.0,11.0,38,0.00,,---,0.00,39.15,VWS V14.01,2013-01-03 22:50:00,
2013-01-03 14:55:00,44.8,26.3,30.08,East,93,6.5,6.5,48,0.00,,---,0.00,41.74,VWS V14.01,2013-01-03 22:55:00,
2013-01-03 15:00:00,44.1,27.1,30.08,East,93,4.7,6.0,51,0.00,,---,0.00,36.02,VWS V14.01,2013-01-03 23:00:00,
2013-01-03 15:05:00,44.1,27.2,30.08,ESE,103,6.9,6.9,51,0.00,,---,0.00,30.07,VWS V14.01,2013-01-03 23:05:00,
2013-01-03 15:10:00,44.1,27.2,30.08,ESE,103,6.9,6.9,51,0.00,,---,0.00,30.07,VWS V14.01,2013-01-03 23:10:00,
2013-01-03 15:18:00,44.1,27.2,30.08,ESE,103,6.9,6.9,51,0.00,,---,0.00,30.07,VWS V14.01,2013-01-03 23:18:00,
2013-01-03 15:23:00,44.1,27.2,30.08,ESE,103,6.9,6.9,51,0.00,,---,0.00,30.07,VWS V14.01,2013-01-03 23:23:00,
2013-01-03 15:28:00,44.1,27.2,30.08,ESE,103,6.9,6.9,51,0.00,,---,0.00,30.07,VWS V14.01,2013-01-03 23:28:00,
2013-01-03 15:35:00,44.1,27.2,30.08,ESE,103,6.9,6.9,51,0.00,,---,0.00,30.07,VWS V14.01,2013-01-03 23:35:00,
2013-01-03 15:41:00,44.1,27.2,30.08,ESE,103,6.9,6.9,51,0.00,,---,0.00,30.07,VWS V14.01,2013-01-03 23:41:00,
2013-01-03 15:46:00,44.1,27.2,30.08,ESE,103,6.9,6.9,51,0.00,,---,0.00,30.07,VWS V14.01,2013-01-03 23:46:00,
2013-01-03 15:53:00,44.1,27.2,30.08,ESE,103,6.9,6.9,51,0.00,,---,0.00,30.07,VWS V14.01,2013-01-03 23:53:00,
2013-01-03 15:58:00,44.1,27.2,30.08,ESE,103,6.9,6.9,51,0.00,,---,0.00,30.07,VWS V14.01,2013-01-03 23:58:00,
2013-01-03 16:34:00,42.3,24.2,30.09,East,94,3.6,3.6,48,0.00,,---,0.00,3.82,VWS V14.01,2013-01-04 00:34:00,
2013-01-03 16:39:00,42.4,22.2,30.09,ENE,58,5.1,8.5,44,0.00,,---,0.00,0.00,VWS V14.01,2013-01-04 00:39:00,
2013-01-03 16:44:00,42.4,21.0,30.10,NNE,16,2.9,7.8,42,0.00,,---,0.00,1.91,VWS V14.01,2013-01-04 00:44:00,
2013-01-03 16:49:00,42.4,19.6,30.09,NNE,21,6.3,6.3,40,0.00,,---,0.00,3.21,VWS V14.01,2013-01-04 00:49:00,
2013-01-03 16:54:00,42.3,20.0,30.09,NNE,28,2.2,4.3,40,0.00,,---,0.00,4.81,VWS V14.01,2013-01-04 00:54:00,
2013-01-03 16:59:00,42.3,20.5,30.10,ENE,68,6.7,8.3,41,0.00,,---,0.00,0.53,VWS V14.01,2013-01-04 00:59:00,
2013-01-03 17:04:00,42.1,22.5,30.09,NE,42,2.7,2.7,45,0.00,,---,0.00,1.14,VWS V14.01,2013-01-04 01:04:00,
2013-01-03 17:09:00,41.7,21.2,30.10,ENE,61,7.8,7.8,44,0.00,,---,0.00,0.00,VWS V14.01,2013-01-04 01:09:00,
2013-01-03 17:14:00,41.7,21.4,30.10,NNW,347,3.6,5.6,44,0.00,,---,0.00,0.00,VWS V14.01,2013-01-04 01:14:00,
2013-01-03 17:19:00,41.5,21.3,30.09,NNE,15,4.3,4.3,44,0.00,,---,0.00,0.31,VWS V14.01,2013-01-04 01:19:00,
2013-01-03 17:24:00,41.5,20.9,30.08,ENE,76,4.3,4.3,43,0.00,,---,0.00,1.76,VWS V14.01,2013-01-04 01:24:00,
2013-01-03 17:29:00,41.5,20.8,30.08,ENE,57,3.4,3.4,43,0.00,,---,0.00,0.00,VWS V14.01,2013-01-04 01:29:00,
2013-01-03 17:34:00,41.5,20.6,30.08,NW,313,1.3,1.3,43,0.00,,---,0.00,1.83,VWS V14.01,2013-01-04 01:34:00,
2013-01-03 17:39:00,41.5,19.9,30.07,ENE,71,0.2,0.2,42,0.00,,---,0.00,0.00,VWS V14.01,2013-01-04 01:39:00,
2013-01-03 17:44:00,41.7,20.1,30.07,NW,317,0.4,1.3,42,0.00,,---,0.00,0.00,VWS V14.01,2013-01-04 01:44:00,
2013-01-03 17:49:00,41.7,20.6,30.06,North,359,1.8,1.8,42,0.00,,---,0.00,0.15,VWS V14.01,2013-01-04 01:49:00,
2013-01-03 17:54:00,41.9,20.9,30.06,NW,309,2.7,2.7,43,0.00,,---,0.00,0.00,VWS V14.01,2013-01-04 01:54:00,
2013-01-03 17:59:00,42.1,19.9,30.07,North,2,3.6,6.3,41,0.00,,---,0.00,1.30,VWS V14.01,2013-01-04 01:59:00,
2013-01-03 18:04:00,42.4,20.1,30.08,NE,54,1.3,2.9,40,0.00,,---,0.00,0.00,VWS V14.01,2013-01-04 02:04:00,
2013-01-03 18:09:00,42.4,20.9,30.09,East,98,9.2,9.2,42,0.00,,---,0.00,0.38,VWS V14.01,2013-01-04 02:09:00,
2013-01-03 18:14:00,42.1,23.3,30.11,East,100,11.9,11.9,47,0.00,,---,0.00,0.00,VWS V14.01,2013-01-04 02:14:00,
2013-01-03 18:19:00,41.9,23.7,30.11,East,86,8.5,8.5,48,0.00,,---,0.00,0.00,VWS V14.01,2013-01-04 02:19:00,
2013-01-03 18:24:00,41.5,22.7,30.10,East,81,8.5,10.1,47,0.00,,---,0.00,0.00,VWS V14.01,2013-01-04 02:24:00,
2013-01-03 18:29:00,41.7,24.1,30.11,NE,51,5.1,9.2,49,0.00,,---,0.00,0.00,VWS V14.01,2013-01-04 02:29:00,
2013-01-03 18:34:00,41.7,22.9,30.11,NNE,24,6.0,6.5,47,0.00,,---,0.00,0.00,VWS V14.01,2013-01-04 02:34:00,
2013-01-03 18:39:00,41.4,23.2,30.10,NNW,347,3.4,6.3,48,0.01,,---,0.01,0.00,VWS V14.01,2013-01-04 02:39:00,
2013-01-03 18:44:00,40.6,23.9,30.10,East,83,3.1,3.1,51,0.02,,---,0.02,0.00,VWS V14.01,2013-01-04 02:44:00,
2013-01-03 18:49:00,40.1,25.5,30.10,North,8,3.1,3.1,56,0.03,,---,0.03,0.00,VWS V14.01,2013-01-04 02:49:00,
2013-01-03 18:54:00,39.6,26.3,30.10,NE,38,1.3,2.5,59,0.04,,---,0.04,0.00,VWS V14.01,2013-01-04 02:54:00,
2013-01-03 18:59:00,39.6,26.5,30.10,NE,40,0.9,1.1,59,0.05,,---,0.05,0.31,VWS V14.01,2013-01-04 02:59:00,
2013-01-03 19:03:00,39.0,26.6,30.10,NE,37,2.5,2.5,61,0.06,,---,0.06,2.29,VWS V14.01,2013-01-04 03:03:00,
2013-01-03 19:08:00,38.8,27.3,30.10,NNE,16,2.7,2.7,63,0.06,,---,0.06,1.60,VWS V14.01,2013-01-04 03:08:00,
2013-01-03 19:13:00,38.8,26.6,30.09,East,94,1.1,1.1,61,0.06,,---,0.06,0.00,VWS V14.01,2013-01-04 03:13:00,
2013-01-03 19:18:00,38.7,27.2,30.09,NNE,15,1.3,2.5,63,0.06,,---,0.06,0.31,VWS V14.01,2013-01-04 03:18:00,
2013-01-03 19:23:00,38.7,27.7,30.10,ENE,63,2.0,2.0,64,0.06,,---,0.06,0.00,VWS V14.01,2013-01-04 03:23:00,
2013-01-03 19:28:00,38.5,27.3,30.10,NE,34,2.9,2.9,64,0.06,,---,0.06,4.58,VWS V14.01,2013-01-04 03:28:00,
2013-01-03 19:33:00,38.7,28.4,30.10,WNW,286,0.7,0.7,66,0.06,,---,0.06,0.46,VWS V14.01,2013-01-04 03:33:00,
2013-01-03 19:38:00,38.7,28.5,30.10,NW,311,0.7,2.0,66,0.05,,---,0.06,0.00,VWS V14.01,2013-01-04 03:38:00,
2013-01-03 19:43:00,38.8,27.7,30.09,North,352,6.3,6.3,64,0.04,,---,0.06,0.92,VWS V14.01,2013-01-04 03:43:00,
2013-01-03 19:48:00,38.7,27.6,30.09,NW,313,4.0,4.7,64,0.03,,---,0.06,1.83,VWS V14.01,2013-01-04 03:48:00,
2013-01-03 19:53:00,38.8,28.6,30.09,NNW,336,5.4,5.4,66,0.03,,---,0.06,0.00,VWS V14.01,2013-01-04 03:53:00,
2013-01-03 19:58:00,38.7,29.0,30.10,NW,316,2.7,2.7,68,0.01,,---,0.06,0.00,VWS V14.01,2013-01-04 03:58:00,
2013-01-03 20:03:00,38.7,29.4,30.10,NW,308,2.5,3.8,69,0.01,,---,0.06,0.00,VWS V14.01,2013-01-04 04:03:00,
2013-01-03 20:08:00,38.5,29.8,30.10,North,355,1.3,2.7,71,0.01,,---,0.07,0.00,VWS V14.01,2013-01-04 04:08:00,
2013-01-03 20:13:00,38.5,29.9,30.10,NW,320,2.7,4.5,71,0.01,,---,0.07,4.35,VWS V14.01,2013-01-04 04:13:00,
2013-01-03 20:18:00,38.3,30.2,30.11,WSW,238,1.6,1.6,72,0.01,,---,0.07,0.00,VWS V14.01,2013-01-04 04:18:00,
2013-01-03 20:23:00,38.1,30.0,30.10,WSW,241,4.0,4.3,72,0.01,,---,0.07,1.83,VWS V14.01,2013-01-04 04:23:00,
2013-01-03 20:28:00,37.9,30.3,30.10,SSW,202,2.7,2.7,74,0.01,,---,0.07,0.00,VWS V14.01,2013-01-04 04:28:00,
2013-01-03 20:33:00,37.9,30.5,30.11,SSE,155,2.9,2.9,74,0.01,,---,0.07,0.00,VWS V14.01,2013-01-04 04:33:00,
2013-01-03 20:38:00,37.8,30.6,30.10,SW,232,2.7,2.7,75,0.01,,---,0.07,0.23,VWS V14.01,2013-01-04 04:38:00,
2013-01-03 20:43:00,37.6,30.7,30.10,South,175,3.1,3.1,76,0.01,,---,0.08,0.00,VWS V14.01,2013-01-04 04:43:00,
2013-01-03 20:48:00,37.4,30.9,30.11,SSE,164,3.8,3.8,77,0.01,,---,0.08,0.76,VWS V14.01,2013-01-04 04:48:00,
2013-01-03 20:53:00,37.4,31.3,30.10,South,185,2.5,2.5,78,0.02,,---,0.09,2.29,VWS V14.01,2013-01-04 04:53:00,
2013-01-03 20:58:00,37.2,31.3,30.11,SW,222,2.5,3.6,79,0.02,,---,0.09,0.00,VWS V14.01,2013-01-04 04:58:00,
2013-01-03 21:00:00,37.2,31.5,30.11,South,178,2.2,2.2,80,0.02,,---,0.09,3.05,VWS V14.01,2013-01-04 05:00:00,
2013-01-03 21:01:00,37.4,31.7,30.11,SSW,200,3.6,3.6,80,0.02,,---,0.09,0.00,VWS V14.01,2013-01-04 05:01:00,
2013-01-03 21:02:00,37.4,31.7,30.11,SSW,200,3.6,3.6,80,0.02,,---,0.09,0.00,VWS V14.01,2013-01-04 05:02:00,
2013-01-03 21:03:00,37.2,31.5,30.11,South,175,2.9,2.9,80,0.02,,---,0.09,2.06,VWS V14.01,2013-01-04 05:03:00,
2013-01-03 21:08:00,37.0,31.5,30.11,South,188,4.9,4.9,80,0.02,,---,0.09,4.12,VWS V14.01,2013-01-04 05:08:00,
2013-01-03 21:13:00,37.0,31.9,30.11,South,172,0.7,0.7,81,0.02,,---,0.09,3.21,VWS V14.01,2013-01-04 05:13:00,
2013-01-03 21:18:00,37.0,32.0,30.11,South,179,2.2,3.1,82,0.02,,---,0.09,0.46,VWS V14.01,2013-01-04 05:18:00,
2013-01-03 21:23:00,36.9,32.0,30.11,South,177,5.1,5.1,82,0.02,,---,0.09,0.00,VWS V14.01,2013-01-04 05:23:00,
2013-01-03 21:28:00,36.9,32.2,30.11,SSW,212,3.6,3.6,83,0.02,,---,0.09,0.00,VWS V14.01,2013-01-04 05:28:00,
2013-01-03 21:33:00,36.7,32.1,30.11,SW,214,2.5,3.8,83,0.02,,---,0.09,1.30,VWS V14.01,2013-01-04 05:33:00,
2013-01-03 21:38:00,36.7,32.1,30.11,South,187,4.0,4.0,83,0.02,,---,0.09,0.00,VWS V14.01,2013-01-04 05:38:00,
2013-01-03 21:43:00,36.7,32.2,30.11,WSW,256,2.2,2.7,84,0.02,,---,0.10,0.46,VWS V14.01,2013-01-04 05:43:00,
2013-01-03 21:48:00,36.7,32.2,30.11,SSW,198,3.4,3.4,84,0.03,,---,0.10,0.00,VWS V14.01,2013-01-04 05:48:00,
2013-01-03 21:53:00,36.7,32.4,30.11,SSW,193,3.6,3.6,84,0.02,,---,0.10,0.00,VWS V14.01,2013-01-04 05:53:00,
2013-01-03 21:58:00,36.7,32.4,30.11,NW,319,2.0,2.9,84,0.02,,---,0.10,0.00,VWS V14.01,2013-01-04 05:58:00,
2013-01-03 22:00:00,36.7,32.5,30.11,NNE,33,0.4,1.1,84,0.02,,---,0.10,0.00,VWS V14.01,2013-01-04 06:00:00,
2013-01-03 22:03:00,36.7,32.5,30.11,NNE,33,0.4,1.1,84,0.02,,---,0.10,0.00,VWS V14.01,2013-01-04 06:03:00,
2013-01-03 22:08:00,36.7,32.5,30.11,NNE,33,0.4,1.1,84,0.02,,---,0.10,0.00,VWS V14.01,2013-01-04 06:08:00,
2013-01-03 22:13:00,36.7,32.5,30.11,NNE,33,0.4,1.1,84,0.02,,---,0.10,0.00,VWS V14.01,2013-01-04 06:13:00,
2013-01-03 22:19:00,36.7,32.5,30.11,NNE,33,0.4,1.1,84,0.02,,---,0.10,0.00,VWS V14.01,2013-01-04 06:19:00,
2013-01-03 22:24:00,36.7,32.5,30.11,NNE,33,0.4,1.1,84,0.02,,---,0.10,0.00,VWS V14.01,2013-01-04 06:24:00,
2013-01-03 22:29:00,36.7,32.5,30.11,NNE,33,0.4,1.1,84,0.02,,---,0.10,0.00,VWS V14.01,2013-01-04 06:29:00,
2013-01-03 22:36:00,36.7,32.5,30.11,NNE,33,0.4,1.1,84,0.02,,---,0.10,0.00,VWS V14.01,2013-01-04 06:36:00,
2013-01-03 22:41:00,36.7,32.5,30.11,NNE,33,0.4,1.1,84,0.02,,---,0.10,0.00,VWS V14.01,2013-01-04 06:41:00,
2013-01-03 22:48:00,36.7,32.5,30.11,NNE,33,0.4,1.1,84,0.02,,---,0.10,0.00,VWS V14.01,2013-01-04 06:48:00,
2013-01-03 22:53:00,36.7,32.5,30.11,NNE,33,0.4,1.1,84,0.02,,---,0.10,0.00,VWS V14.01,2013-01-04 06:53:00,
2013-01-03 22:58:00,36.7,32.5,30.11,NNE,33,0.4,1.1,84,0.02,,---,0.10,0.00,VWS V14.01,2013-01-04 06:58:00,